Location: Newark
(53.3333°N, 83.7500°E)
Time: 18:16:41
(UTC+00:00)

ISS - Visible Passes

Search period start: 21 October 2019 00:00
Search period end: 31 October 2019 00:00
Orbit: 411 x 421 km, 51.6° (Epoch: 21 October)

Date Brightness Start Highest point End Pass type
(mag) Time Alt. Az. Time Alt. Az. Time Alt. Az.
24 Oct -0.4 00:13:56 10° SSE 00:14:32 10° SE 00:15:07 10° SE visible
26 Oct -1.2 00:11:06 10° SSW 00:13:37 20° SSE 00:16:09 10° E visible
26 Oct -0.9 23:23:20 10° S 23:25:13 14° SE 23:27:06 10° ESE visible
28 Oct -2.2 00:09:44 10° SW 00:12:49 33° SSE 00:15:54 10° E visible
28 Oct -1.9 23:22:31 16° SSW 23:24:18 25° SSE 23:27:10 10° E visible
29 Oct -1.4 22:36:07 19° SE 22:36:07 19° SE 22:38:17 10° E visible
30 Oct -3.1 00:09:01 11° WSW 00:12:05 51° SSE 00:15:22 10° E visible
30 Oct -2.8 23:22:31 32° SSW 23:23:29 41° SSE 23:26:42 10° E visible
